Location: Follega
(52.8850°N, 5.7362°E)
Time: 07:34:20
(UTC+00:00)

ERS-1 Rocket - Pass Details

Date: 05 October 2020
Orbit: 753 x 757 km, 98.5° (Epoch: 30 October)

Event Time Altitude Azimuth Distance (km) Brightness Sun altitude
Exits shadow 19:38:07 21° 40° (NE) 1,657 4.6 -23.6°
Drops below altitude 10° 19:41:02 10° 7° (N) 2,301 5.7 -24.0°
Sets 19:43:46 0° 352° (N) 3,231 6.7 -24.4°
